Location: Dompnac
(44.5644°N, 4.1026°E)
Time: 18:51:37
(UTC+00:00)

Cosmos 1634 Rocket - Pass Details

Date: 20 January 2021
Orbit: 961 x 991 km, 82.9° (Epoch: 05 March)

Event Time Altitude Azimuth Distance (km) Brightness Sun altitude
Rises 05:30:10 0° 167° (SSE) 3,631 7.3 -18.2°
Reaches altitude 10° 05:32:44 10° 162° (SSE) 2,688 6.7 -17.7°
Maximum altitude 05:38:34 47° 90° (E) 1,257 5.1 -16.7°
Drops below altitude 10° 05:44:26 10° 19° (NNE) 2,708 6.4 -15.7°
Sets 05:47:01 0° 14° (NNE) 3,662 7.0 -15.2°
